| time (UTC) | temp F | wind direction | speed MPH | gust MPH | rain 1hr in | rain 24hr in | rain mn in | humidity % | barometer mb |
| 20260904183538 | 70 | 338 | 1.0 | 4.0 | 0.00 | 0.02 | 0.00 | 79 | 1012.7 |
| 20260904182517 | 70 | 315 | 1.0 | 3.0 | 0.00 | 0.02 | 0.00 | 78 | 1012.6 |
| 20260904181518 | 70 | 315 | 1.0 | 3.0 | 0.00 | 0.02 | 0.00 | 78 | 1012.6 |
| 20260904180517 | 70 | 0.0 | 2.0 | 0.00 | 0.02 | 0.00 | 78 | 1012.7 | |
| 20260904175538 | 70 | 0.0 | 1.0 | 0.00 | 0.02 | 0.00 | 82 | 1012.8 | |
| 20260904174517 | 69 | 0.0 | 0.0 | 0.00 | 0.02 | 0.00 | 85 | 1012.7 | |
| 20260904173518 | 69 | 0.0 | 1.0 | 0.00 | 0.02 | 0.00 | 85 | 1012.9 | |
| 20260904172558 | 68 | 0.0 | 0.0 | 0.00 | 0.02 | 0.00 | 87 | 1012.8 | |
| 20260904171518 | 67 | 0.0 | 0.0 | 0.00 | 0.02 | 0.00 | 88 | 1012.8 | |
| 20260904170518 | 67 | 0.0 | 2.0 | 0.00 | 0.02 | 0.00 | 87 | 1012.9 | |
| 20260904165518 | 67 | 0.0 | 0.0 | 0.00 | 0.02 | 0.00 | 88 | 1012.8 | |
| 20260904164537 | 67 | 0.0 | 0.0 | 0.00 | 0.02 | 0.00 | 86 | 1012.7 | |
| 20260904163518 | 67 | 0.0 | 3.0 | 0.00 | 0.02 | 0.00 | 85 | 1012.7 | |
| 20260904162517 | 68 | 315 | 1.0 | 5.0 | 0.00 | 0.02 | 0.00 | 81 | 1012.7 |
| 20260904161517 | 69 | 0.0 | 1.0 | 0.00 | 0.02 | 0.00 | 82 | 1012.6 | |
| 20260904160517 | 69 | 0.0 | 2.0 | 0.00 | 0.02 | 0.00 | 81 | 1012.6 | |
| 20260904155517 | 69 | 23 | 1.0 | 4.0 | 0.00 | 0.02 | 0.00 | 82 | 1012.7 |
| 20260904154518 | 68 | 338 | 1.0 | 6.0 | 0.00 | 0.02 | 0.00 | 86 | 1012.7 |
| 20260904153517 | 68 | 0.0 | 3.0 | 0.00 | 0.02 | 0.00 | 86 | 1012.8 | |
| 20260904152517 | 67 | 0.0 | 0.0 | 0.00 | 0.02 | 0.00 | 89 | 1012.9 | |
| 20260904151517 | 67 | 0.0 | 0.0 | 0.00 | 0.02 | 0.00 | 89 | 1013.0 | |
| 20260904150518 | 67 | 0.0 | 0.0 | 0.00 | 0.02 | 0.00 | 89 | 1013.2 | |
| 20260904145518 | 67 | 0.0 | 3.0 | 0.00 | 0.02 | 0.00 | 88 | 1013.2 | |
| 20260904144558 | 66 | 293 | 2.0 | 7.0 | 0.00 | 0.02 | 0.00 | 89 | 1013.0 |
| 20260904143517 | 66 | 338 | 1.0 | 4.0 | 0.00 | 0.02 | 0.00 | 91 | 1012.9 |
| 20260904142538 | 66 | 45 | 1.0 | 2.0 | 0.00 | 0.02 | 0.00 | 92 | 1012.9 |
| 20260904141518 | 65 | 0.0 | 2.0 | 0.00 | 0.02 | 0.00 | 93 | 1013.0 | |
| 20260904140517 | 65 | 315 | 1.0 | 4.0 | 0.00 | 0.02 | 0.00 | 93 | 1013.0 |
| 20260904135518 | 64 | 315 | 1.0 | 4.0 | 0.00 | 0.02 | 0.00 | 94 | 1012.8 |
| 20260904134517 | 64 | 315 | 1.0 | 3.0 | 0.00 | 0.02 | 0.00 | 95 | 1013.0 |
| 20260904133518 | 64 | 315 | 1.0 | 3.0 | 0.00 | 0.02 | 0.00 | 94 | 1012.8 |
| 20260904132517 | 63 | 0.0 | 0.0 | 0.00 | 0.02 | 0.00 | 95 | 1012.6 | |
| 20260904131518 | 63 | 0.0 | 1.0 | 0.00 | 0.02 | 0.00 | 95 | 1012.7 | |
| 20260904130517 | 63 | 0.0 | 0.0 | 0.00 | 0.02 | 0.00 | 96 | 1012.9 | |
| 20260904125517 | 62 | 0.0 | 0.0 | 0.00 | 0.02 | 0.00 | 96 | 1012.8 | |
| 20260904124517 | 62 | 0.0 | 0.0 | 0.00 | 0.02 | 0.00 | 96 | 1012.9 | |
| 20260904123539 | 62 | 0.0 | 0.0 | 0.00 | 0.02 | 0.00 | 96 | 1013.0 | |
| 20260904122517 | 62 | 0.0 | 0.0 | 0.00 | 0.02 | 0.00 | 97 | 1012.9 | |
| 20260904121518 | 62 | 0.0 | 0.0 | 0.00 | 0.02 | 0.00 | 97 | 1012.9 | |
| 20260904120538 | 62 | 0.0 | 0.0 | 0.00 | 0.02 | 0.00 | 97 | 1012.8 | |
| 20260904115518 | 61 | 0.0 | 0.0 | 0.00 | 0.02 | 0.00 | 97 | 1012.8 | |
| 20260904114517 | 61 | 0.0 | 0.0 | 0.00 | 0.02 | 0.00 | 97 | 1012.6 | |
| 20260904113518 | 61 | 0.0 | 0.0 | 0.00 | 0.02 | 0.00 | 97 | 1012.5 | |
| 20260904112538 | 61 | 0.0 | 0.0 | 0.00 | 0.02 | 0.00 | 97 | 1012.4 | |
| 20260904111537 | 61 | 0.0 | 0.0 | 0.00 | 0.02 | 0.00 | 97 | 1012.3 | |
| 20260904110537 | 61 | 0.0 | 0.0 | 0.00 | 0.02 | 0.00 | 97 | 1012.4 | |
| 20260904105538 | 61 | 0.0 | 0.0 | 0.00 | 0.02 | 0.00 | 97 | 1012.4 | |
| 20260904104517 | 61 | 0.0 | 0.0 | 0.00 | 0.02 | 0.00 | 97 | 1012.3 | |
| 20260904103518 | 61 | 0.0 | 0.0 | 0.00 | 0.02 | 0.00 | 97 | 1012.1 | |
| 20260904102517 | 61 | 0.0 | 0.0 | 0.00 | 0.02 | 0.00 | 97 | 1012.1 | |
| 20260904101517 | 61 | 0.0 | 0.0 | 0.00 | 0.02 | 0.00 | 97 | 1012.1 | |
| 20260904100517 | 61 | 0.0 | 0.0 | 0.00 | 0.02 | 0.00 | 97 | 1012.0 | |
| 20260904095538 | 61 | 0.0 | 0.0 | 0.00 | 0.02 | 0.00 | 97 | 1012.0 | |
| 20260904094517 | 61 | 0.0 | 0.0 | 0.00 | 0.02 | 0.00 | 97 | 1011.8 | |
| 20260904093539 | 61 | 0.0 | 0.0 | 0.00 | 0.02 | 0.00 | 97 | 1011.7 | |
| 20260904092537 | 61 | 0.0 | 0.0 | 0.00 | 0.02 | 0.00 | 97 | 1011.8 | |
| 20260904091518 | 61 | 0.0 | 0.0 | 0.00 | 0.02 | 0.00 | 97 | 1011.6 | |
| 20260904090517 | 61 | 0.0 | 0.0 | 0.00 | 0.02 | 0.00 | 97 | 1011.6 | |
| 20260904085538 | 61 | 0.0 | 0.0 | 0.00 | 0.02 | 0.00 | 97 | 1011.6 | |
| 20260904084517 | 61 | 0.0 | 0.0 | 0.00 | 0.02 | 0.00 | 97 | 1011.5 | |
| 20260904083519 | 61 | 0.0 | 0.0 | 0.00 | 0.02 | 0.00 | 97 | 1011.5 | |
| 20260904082515 | 61 | 0.0 | 0.0 | 0.00 | 0.02 | 0.00 | 96 | 1011.6 | |
| 20260904081538 | 61 | 0.0 | 0.0 | 0.00 | 0.02 | 0.00 | 97 | 1011.6 | |
| 20260904080517 | 62 | 0.0 | 0.0 | 0.00 | 0.02 | 0.00 | 97 | 1011.6 | |
| 20260904075517 | 62 | 0.0 | 0.0 | 0.00 | 0.02 | 0.00 | 97 | 1011.6 | |
| 20260904074537 | 62 | 0.0 | 0.0 | 0.00 | 0.02 | 0.00 | 97 | 1011.7 | |
| 20260904073539 | 62 | 0.0 | 0.0 | 0.00 | 0.02 | 0.00 | 97 | 1011.6 | |
| 20260904072517 | 62 | 0.0 | 0.0 | 0.00 | 0.02 | 0.00 | 97 | 1011.6 | |
| 20260904071517 | 63 | 0.0 | 0.0 | 0.00 | 0.02 | 0.00 | 97 | 1011.7 | |
| 20260904070517 | 63 | 0.0 | 0.0 | 0.00 | 0.02 | 0.00 | 97 | 1011.8 | |
| 20260904065518 | 63 | 0.0 | 0.0 | 0.00 | 0.02 | 0.00 | 97 | 1011.7 | |
| 20260904064518 | 63 | 0.0 | 0.0 | 0.00 | 0.02 | 0.00 | 97 | 1011.6 | |
| 20260904063517 | 63 | 0.0 | 0.0 | 0.00 | 0.02 | 0.00 | 97 | 1011.8 | |
| 20260904062518 | 63 | 0.0 | 0.0 | 0.00 | 0.02 | 0.00 | 97 | 1011.9 | |
| 20260904061517 | 63 | 0.0 | 0.0 | 0.00 | 0.02 | 0.00 | 97 | 1012.0 | |
| 20260904060517 | 63 | 0.0 | 0.0 | 0.00 | 0.02 | 0.00 | 97 | 1011.9 | |
| 20260904055518 | 63 | 0.0 | 0.0 | 0.00 | 0.02 | 0.00 | 97 | 1011.9 | |
| 20260904054517 | 63 | 0.0 | 0.0 | 0.00 | 0.02 | 0.00 | 97 | 1011.7 | |
| 20260904053518 | 63 | 0.0 | 0.0 | 0.00 | 0.02 | 0.00 | 97 | 1011.8 | |
| 20260904052517 | 63 | 0.0 | 0.0 | 0.00 | 0.02 | 0.00 | 97 | 1011.8 | |
| 20260904051518 | 63 | 0.0 | 0.0 | 0.00 | 0.02 | 0.00 | 97 | 1012.0 | |
| 20260904050515 | 63 | 0.0 | 0.0 | 0.00 | 0.02 | 0.00 | 97 | 1012.0 | |
| 20260904045518 | 63 | 0.0 | 0.0 | 0.00 | 0.02 | 0.00 | 96 | 1012.0 | |
| 20260904044517 | 63 | 0.0 | 0.0 | 0.00 | 0.02 | 0.00 | 96 | 1011.9 | |
| 20260904043518 | 63 | 0.0 | 0.0 | 0.00 | 0.02 | 0.00 | 96 | 1011.9 | |
| 20260904042517 | 63 | 0.0 | 0.0 | 0.00 | 0.02 | 0.00 | 96 | 1011.9 | |
| 20260904041518 | 63 | 0.0 | 0.0 | 0.00 | 0.02 | 0.00 | 96 | 1011.8 | |
| 20260904040517 | 64 | 0.0 | 0.0 | 0.00 | 0.02 | 0.00 | 96 | 1011.9 | |
| 20260904035515 | 64 | 0.0 | 0.0 | 0.00 | 0.02 | 0.02 | 96 | 1011.9 | |
| 20260904034556 | 64 | 0.0 | 0.0 | 0.00 | 0.02 | 0.02 | 96 | 1011.8 | |
| 20260904033515 | 64 | 0.0 | 0.0 | 0.00 | 0.02 | 0.02 | 96 | 1011.7 | |
| 20260904032535 | 64 | 0.0 | 0.0 | 0.00 | 0.02 | 0.02 | 96 | 1011.8 | |
| 20260904031516 | 65 | 0.0 | 0.0 | 0.00 | 0.02 | 0.02 | 96 | 1011.8 | |
| 20260904030516 | 65 | 0.0 | 0.0 | 0.00 | 0.02 | 0.02 | 96 | 1011.9 | |
| 20260904025515 | 65 | 0.0 | 0.0 | 0.00 | 0.02 | 0.02 | 96 | 1011.9 | |
| 20260904024516 | 65 | 0.0 | 0.0 | 0.00 | 0.02 | 0.02 | 96 | 1011.9 | |
| 20260904023515 | 65 | 0.0 | 0.0 | 0.00 | 0.02 | 0.02 | 96 | 1011.9 | |
| 20260904022516 | 65 | 0.0 | 0.0 | 0.00 | 0.02 | 0.02 | 96 | 1011.8 | |
| 20260904021515 | 65 | 0.0 | 0.0 | 0.00 | 0.02 | 0.02 | 96 | 1011.9 | |
| 20260904020556 | 65 | 0.0 | 0.0 | 0.00 | 0.02 | 0.02 | 95 | 1012.0 | |
| 20260904015515 | 66 | 0.0 | 0.0 | 0.00 | 0.02 | 0.02 | 94 | 1012.0 | |
| 20260904014516 | 66 | 0.0 | 0.0 | 0.00 | 0.02 | 0.02 | 94 | 1012.0 | |
| 20260904013516 | 66 | 0.0 | 0.0 | 0.00 | 0.02 | 0.02 | 93 | 1011.9 | |
| 20260904012515 | 66 | 0.0 | 0.0 | 0.00 | 0.02 | 0.02 | 94 | 1011.8 | |
| 20260904011515 | 66 | 0.0 | 0.0 | 0.00 | 0.02 | 0.02 | 94 | 1011.7 | |
| 20260904010516 | 66 | 0.0 | 0.0 | 0.00 | 0.02 | 0.02 | 95 | 1011.6 | |
| 20260904005517 | 67 | 0.0 | 0.0 | 0.00 | 0.02 | 0.02 | 95 | 1011.7 | |
| 20260904004516 | 67 | 0.0 | 0.0 | 0.00 | 0.02 | 0.02 | 94 | 1011.4 | |
| 20260904003517 | 67 | 0.0 | 0.0 | 0.00 | 0.02 | 0.02 | 94 | 1011.3 | |
| 20260904002516 | 67 | 0.0 | 0.0 | 0.00 | 0.02 | 0.02 | 93 | 1011.1 | |
| 20260904001516 | 67 | 0.0 | 0.0 | 0.00 | 0.02 | 0.02 | 91 | 1011.0 | |
| 20260904000515 | 68 | 0.0 | 0.0 | 0.00 | 0.02 | 0.02 | 90 | 1010.9 | |
| 20260903235516 | 68 | 0.0 | 0.0 | 0.00 | 0.02 | 0.02 | 91 | 1010.9 | |
| 20260903234516 | 68 | 0.0 | 0.0 | 0.00 | 0.02 | 0.02 | 90 | 1010.7 | |
| 20260903233515 | 69 | 0.0 | 0.0 | 0.00 | 0.02 | 0.02 | 89 | 1010.6 | |
| 20260903232516 | 69 | 0.0 | 0.0 | 0.00 | 0.03 | 0.02 | 89 | 1010.5 | |
| 20260903231515 | 70 | 0.0 | 0.0 | 0.00 | 0.05 | 0.02 | 90 | 1010.5 | |
| 20260903230515 | 70 | 0.0 | 0.0 | 0.00 | 0.13 | 0.02 | 89 | 1010.6 | |
| 20260903225515 | 71 | 0.0 | 0.0 | 0.00 | 0.43 | 0.02 | 90 | 1010.9 | |
| 20260903224516 | 71 | 0.0 | 0.0 | 0.00 | 0.57 | 0.02 | 90 | 1010.8 | |
| 20260903223516 | 71 | 0.0 | 0.0 | 0.00 | 0.82 | 0.02 | 90 | 1010.8 | |
| 20260903222516 | 71 | 0.0 | 0.0 | 0.00 | 1.06 | 0.02 | 90 | 1010.7 | |
| 20260903221516 | 71 | 0.0 | 0.0 | 0.00 | 1.09 | 0.02 | 90 | 1010.7 | |
| 20260903220515 | 70 | 0.0 | 0.0 | 0.00 | 1.12 | 0.02 | 89 | 1010.7 | |
| 20260903215515 | 70 | 0.0 | 0.0 | 0.00 | 1.21 | 0.02 | 89 | 1010.7 | |
| 20260903214516 | 70 | 0.0 | 0.0 | 0.00 | 1.28 | 0.02 | 89 | 1010.5 | |
| 20260903213536 | 70 | 0.0 | 0.0 | 0.00 | 1.29 | 0.02 | 89 | 1010.8 | |
| 20260903212515 | 70 | 0.0 | 0.0 | 0.00 | 1.29 | 0.02 | 89 | 1010.8 | |
| 20260903211535 | 70 | 0.0 | 0.0 | 0.00 | 1.29 | 0.02 | 89 | 1011.0 | |
| 20260903210516 | 70 | 0.0 | 0.0 | 0.00 | 1.29 | 0.02 | 89 | 1011.0 | |
| 20260903205516 | 69 | 0.0 | 0.0 | 0.00 | 1.29 | 0.02 | 90 | 1011.2 | |
| 20260903204616 | 69 | 0.0 | 0.0 | 0.00 | 1.29 | 0.02 | 89 | 1011.0 | |
| 20260903203516 | 69 | 0.0 | 0.0 | 0.01 | 1.29 | 0.02 | 88 | 1010.9 | |
| 20260903202535 | 69 | 0.0 | 0.0 | 0.02 | 1.29 | 0.02 | 88 | 1010.8 | |
| 20260903201556 | 69 | 0.0 | 0.0 | 0.02 | 1.29 | 0.02 | 86 | 1010.6 | |
| 20260903200515 | 69 | 0.0 | 0.0 | 0.02 | 1.29 | 0.02 | 87 | 1010.7 | |
| 20260903195516 | 69 | 0.0 | 1.0 | 0.02 | 1.29 | 0.02 | 87 | 1010.8 | |
| 20260903194515 | 69 | 0.0 | 0.0 | 0.02 | 1.29 | 0.02 | 86 | 1010.8 | |
| 20260903193516 | 70 | 0.0 | 2.0 | 0.02 | 1.28 | 0.02 | 84 | 1011.1 | |
| 20260903192517 | 72 | 315 | 2.0 | 8.0 | 0.00 | 1.27 | 0.00 | 81 | 1011.1 |
| 20260903191516 | 74 | 68 | 2.0 | 5.0 | 0.00 | 1.27 | 0.00 | 79 | 1010.9 |
| 20260903190515 | 75 | 0.0 | 0.0 | 0.00 | 1.27 | 0.00 | 78 | 1010.7 | |
| 20260903185516 | 75 | 0.0 | 0.0 | 0.00 | 1.27 | 0.00 | 77 | 1010.6 | |
| 20260903184516 | 75 | 0.0 | 0.0 | 0.00 | 1.27 | 0.00 | 77 | 1010.7 |